Location: �quirre
(50.4736°N, 2.2351°E)
Time: 07:31:42
(UTC+00:00)

ADEOS II - Pass Details

Date: 07 August 2020
Orbit: 799 x 802 km, 98.5° (Epoch: 26 September)

Event Time Altitude Azimuth Distance (km) Brightness Sun altitude
Rises 02:16:59 0° 15° (NNE) 3,324 6.7 -16.5°
Reaches altitude 10° 02:19:20 10° 17° (NNE) 2,389 5.7 -16.2°
Maximum altitude 02:24:37 77° 104° (ESE) 827 2.2 -15.8°
Enters shadow 02:28:22 20° 189° (S) 1,791 3.4 -15.4°
